Location: Ch�teau-Arnoux
(44.0814°N, 6.0027°E)
Time: 10:35:08
(UTC+00:00)

SL-16 R/B - Pass Details

Date: 15 November 2019
Orbit: 842 x 846 km, 71.0° (Epoch: 12 December)

Event Time Altitude Azimuth Distance (km) Brightness Sun altitude
Exits shadow 03:37:12 10° 359° (N) 2,505 4.7 -31.1°
Reaches altitude 10° 03:37:18 10° 0° (N) 2,478 4.7 -31.1°
Maximum altitude 03:41:27 20° 47° (NE) 1,854 4.4 -30.3°
Drops below altitude 10° 03:45:34 10° 94° (E) 2,469 5.5 -29.6°
Sets 03:48:40 0° 111° (ESE) 3,400 6.3 -29.0°
